Regional Weather Roundup
Issued by NWS Cleveland, OH

Home | Current Version | Previous Version | Graphics & Text | Print | Product List | Glossary On
Versions: 1 2 3 4 5 6 7 8 9 10 11 12 13 14 15 16 17 18 19 20 21 22 23 24 25 26 27 28 29 30 31 32 33 34 35 36 37 38 39 40 41 42 43 44 45 46 47 48 49 50
000
ASUS41 KCLE 282310
RWRCLE
OHIO REGIONAL WEATHER ROUNDUP
NATIONAL WEATHER SERVICE WILMINGTON, OH
700 PM EDT SUN MAY 28 2017

NOTE: "FAIR" INDICATES FEW OR NO CLOUDS BELOW 12,000 FEET WITH NO
SIGNIFICANT WEATHER AND/OR OBSTRUCTIONS TO VISIBILITY.

OHZ001>008-015>018-024>027-034-035-043-044-290000-
   NORTHWEST OHIO

CITY           SKY/WX    TMP DP  RH WIND       PRES   REMARKS
DEFIANCE       LGT RAIN  68  65  90 NW5       29.71R
FINDLAY        PTSUNNY   75  63  66 W6        29.70S
TOLEDO EXPRESS FAIR      63  60  90 S5        29.70S
TOLEDO EXEC    PTSUNNY   67  63  87 CALM      29.70F
LIMA           PTSUNNY   74  63  68 SW14G24   29.71F THUNDER
$$

OHZ009>014-019>023-028>033-038-089-290000-
   NORTHEAST OHIO

CITY           SKY/WX    TMP DP  RH WIND       PRES   REMARKS
CLE-HOPKINS    TSTM      68  61  78 S12       29.73S
CLE-LAKEFRONT  PTSUNNY   67  61  81 E9        29.71R
CUY CO. ARPT   LGT RAIN  64  61  88 W14       29.75R
LORAIN-ELYRIA  PTSUNNY   66  59  78 N5        29.73R
ASHTABULA      FAIR      68  65  90 E5        29.71F
AKRON-CANTON   FAIR      78  62  57 SW15G23   29.72S
WOOSTER        FAIR      76  63  64 SW16G22   29.72S
MANSFIELD      PTSUNNY   75  61  61 SW13      29.73S
YOUNGSTOWN     PTSUNNY   76  61  59 S12G21    29.71S
$$

OHZ042-051>053-060>062-070>072-077>081-290000-
  SOUTHWEST OHIO

CITY           SKY/WX    TMP DP  RH WIND       PRES   REMARKS
CINC-COVINGTON FAIR      73  62  68 SW9       29.79F
CINC-LUNKEN    FAIR      73  64  73 SW12      29.78F
HAMILTON       CLOUDY    74  64  71 SW8G18    29.78F
DAYTON         FAIR      73  61  65 SW15      29.77S
WRIGHT-PAT AFB MOSUNNY   74  63  67 SW15      29.76S
DAYTON GENERAL CLOUDY    72  61  68 SW14      29.77F
WILMINGTON     CLOUDY    71  63  75 SW13      29.78F
$$

OHZ036-037-039>041-045>050-054>059-063>069-073>076-082>088-290000-
  CENTRAL AND SOUTHEAST OHIO

CITY           SKY/WX    TMP DP  RH WIND       PRES   REMARKS
COLUMBUS       FAIR      76  60  57 SW17      29.74F
OSU AIRPORT    FAIR      76  63  64 SW18G25   29.74F
BOLTON FIELD   SUNNY     73  63  68 SW15      29.76F
RICKENBACK AFB CLOUDY    75  62  63 SW14G23   29.75S
NEWARK         FAIR      77  61  57 SW10      29.74S
MARION         PTSUNNY   76  61  59 SW10      29.73S
LANCASTER      FAIR      77  62  59 W10       29.76F
ZANESVILLE     PTSUNNY   77  63  61 SW13      29.75S
NEW PHILLY     PTSUNNY   77  64  64 SW7       29.74R
$$



USA.gov is the U.S. government's official web portal to all federal, state and local government web resources and services.